Location: Saint Peter Port
(49.4500°N, 2.5330°W)
Time: 13:01:23
(UTC+00:00)

Cosmos 2242 Rocket - Visible Passes

Search period start: 17 January 2017 00:00
Search period end: 27 January 2017 00:00
Orbit: 618 x 653 km, 82.5° (Epoch: 16 January)

Date Brightness Start Highest point End Pass type
(mag) Time Alt. Az. Time Alt. Az. Time Alt. Az.
17 Jan 6.0 19:10:02 10° N 19:10:09 11° N 19:10:09 11° N visible
18 Jan 5.8 19:32:24 10° N 19:33:18 16° N 19:33:18 16° N visible
19 Jan 5.2 18:17:22 10° NNE 18:19:09 18° NE 18:19:09 18° NE visible
19 Jan 5.6 19:55:02 10° NNW 19:56:44 22° NNW 19:56:44 22° NNW visible
20 Jan 6.8 06:58:31 10° E 06:59:55 11° E 07:01:18 10° ENE visible
20 Jan 4.0 18:39:22 10° N 18:43:07 38° ENE 18:43:07 38° ENE visible
20 Jan 5.8 20:18:00 10° NW 20:20:45 23° WNW 20:20:45 23° WNW visible
21 Jan 5.5 17:26:19 10° NE 17:27:04 10° ENE 17:27:48 10° ENE visible
21 Jan 3.4 19:01:40 10° N 19:06:07 76° E 19:09:22 18° SSE visible
21 Jan 6.6 20:41:43 10° NW 20:43:40 13° W 20:45:39 10° WSW visible
22 Jan 4.9 17:46:50 10° NNE 17:49:59 19° ENE 17:53:07 10° ESE visible
22 Jan 4.2 19:24:13 10° NNW 19:28:33 54° W 19:32:53 10° S visible
23 Jan 4.2 18:08:42 10° N 18:12:44 33° ENE 18:16:46 10° SE visible
23 Jan 5.5 19:47:05 10° NNW 19:50:52 28° W 19:54:39 10° SSW visible
24 Jan 6.5 06:48:23 10° SE 06:51:23 18° E 06:54:23 10° NE visible
24 Jan 3.5 18:30:56 10° N 18:35:21 64° ENE 18:39:47 10° SSE visible
24 Jan 6.5 20:10:29 10° NW 20:13:03 15° W 20:15:37 10° WSW visible
25 Jan 5.5 07:09:37 10° SSE 07:13:35 34° E 07:17:34 10° NNE visible
25 Jan 3.9 18:53:26 10° NNW 18:57:50 66° W 19:02:15 10° S visible
26 Jan 4.4 17:38:04 10° N 17:41:57 28° ENE 17:45:49 10° SE visible
26 Jan 5.3 19:16:12 10° NNW 19:20:11 33° W 19:24:11 10° SSW visible
